Weather Roundup
Issued by NWS Springfield, MO

Home | Current Version | Previous Version | Text Only | Print | Product List | Glossary On
Versions: 1 2 3 4 5 6 7 8 9 10 11 12 13 14 15 16 17 18 19 20 21 22 23 24 25 26 27 28 29 30 31 32 33 34 35 36 37 38 39 40 41 42 43 44 45 46 47 48 49 50
000
NZUS99 KSGF 031107
HRRSGF

HOURLY WEATHER
NATIONAL WEATHER SERVICE SPRINGFIELD MO
600 AM CDT TUE MAY 03 2016

......SGF CWA......

CITY           SKY/WX    TMP DP  RH WIND       PRES   REMARKS
SPRINGFIELD    FOG       43  41  93 NW3       30.06R VSB 1/4
JOPLIN         FOG       40  39  97 CALM      30.08S VSB 1/4
WEST PLAINS    PTCLDY    47  43  86 N3        30.04S
ROLLA          CLOUDY    47  46  97 NW6       30.03R
OSAGE BEACH    CLOUDY    46  39  76 CALM      30.06S VSB 1/4

......SURROUNDING SGF CWA......

CITY           SKY/WX    TMP DP  RH WIND       PRES   REMARKS
CHANUTE        PTCLDY    39  38  96 CALM      30.09R FOG
PARSONS        CLEAR     39  39 100 CALM      30.10R FOG
COFFEYVILLE    PTCLDY    41  39  93 CALM      30.09S
EMPORIA        CLEAR     42  41  96 CALM      30.07S
GROVE OK       FOG       41  41 100 CALM      30.09S VSB 3/4
ROGERS AR      FOG       41  40  96 CALM      30.08S VSB 1/2
SILOAM SPRINGS CLOUDY    39  30  70 CALM      30.09R VSB 1/4
HARRISON AR    CLEAR     46  45  96 NW5       30.05S
NEAR YELLVILLE CLOUDY   N/A N/A N/A NW5       30.02R

......KANSAS AND MISSOURI......

CITY           SKY/WX    TMP DP  RH WIND       PRES   REMARKS
KANSAS CTY INT PTCLDY    44  42  93 W6        30.06S
DOWNTOWN KC    CLEAR     44  41  89 CALM      30.06S
COLUMBIA       FOG       42  42 100 NW5       30.05R VSB 1/4
SEDALIA        CLEAR     45  43  93 W7        30.06S FOG
ST JOSEPH      FOG       40  39  97 CALM      30.06F VSB 1/4
ST LOUIS       MOCLDY    52  48  87 NW6       30.02R
SPIRIT OF STL  CLOUDY    51  49  92 W3        30.02R
KIRKSVILLE     MOCLDY    39  37  92 NW5       30.05S FOG
WICHITA        PTCLDY    42  39  89 SE5       30.06S
TOPEKA         FOG       39  37  92 CALM      30.08R VSB 3/4
OLATHE         PTCLDY    45  43  93 NW3       30.06F

......TENNESSEE......

CITY           SKY/WX    TMP DP  RH WIND       PRES   REMARKS
MEMPHIS        MOCLDY    55  51  86 NW3       29.99R
NASHVILLE      MOCLDY    55  49  80 NW3       29.96R

......ARKANSAS.......

CITY           SKY/WX    TMP DP  RH WIND       PRES   REMARKS
FAYETTEVILLE   FOG       37  37 100 CALM      30.08R VSB 1/2
FT SMITH       PTCLDY    45  42  89 W5        30.08R
LITTLE ROCK    MOCLDY    57  48  72 N9        30.03R

......OKLAHOMA.......

CITY           SKY/WX    TMP DP  RH WIND       PRES   REMARKS
TULSA          FOG       43  43 100 NW3       30.08R VSB 1/2
PONCA CITY     PTCLDY    40  38  93 CALM      30.08S
MCALESTER      CLEAR     42  39  89 CALM      30.08S
OKLAHOMA CITY  PTCLDY    41  39  93 CALM      30.09R

......IOWA............

CITY           SKY/WX    TMP DP  RH WIND       PRES   REMARKS
DES MOINES     PTCLDY    46  40  79 W3        30.04S
QUAD CITIES    CLEAR     40  37  89 CALM      30.01R

......ILLINOIS........

CITY           SKY/WX    TMP DP  RH WIND       PRES   REMARKS
QUINCY         CLOUDY    47  46  97 NW6       30.02S
CHICAGO        PTCLDY    41  34  76 W3        29.96S




USA.gov is the U.S. government's official web portal to all federal, state and local government web resources and services.